Location: The C. Gantt Observatory
(33.6981°N, 81.6836°W)
Time: 03:15:57
(UTC-04:00)

Iridium 30 - Visible Passes

Search period start: 19 August 2017 00:00
Search period end: 29 August 2017 00:00
Orbit: 193 x 665 km, 86.4° (Epoch: 19 August)

Date Brightness Start Highest point End Pass type
(mag) Time Alt. Az. Time Alt. Az. Time Alt. Az.
19 Aug 4.2 20:50:04 10° S 20:53:00 68° E 20:56:32 10° N visible
20 Aug 7.4 21:42:04 10° WSW 21:43:59 15° WNW 21:46:06 10° NW visible
21 Aug 5.1 20:57:15 10° SSW 21:00:18 55° W 21:03:57 10° N visible
23 Aug 6.5 21:01:53 10° SSW 21:04:53 31° W 21:08:20 10° NNW visible
25 Aug 7.4 21:03:51 10° SW 21:06:38 22° W 21:09:44 10° NNW visible
27 Aug 7.8 21:03:07 10° WSW 21:05:33 17° WNW 21:08:11 10° NW visible
